Location: Coopersdale
(40.3556°N, 78.9372°W)
Time: 02:40:05
(UTC+00:00)

Tiros 1 despin weight - Pass Details

Date: 19 January 2021
Orbit: 593 x 642 km, 48.2° (Epoch: 02 March)

Event Time Altitude Azimuth Distance (km) Brightness Sun altitude
Rises 02:52:19 0° 300° (WNW) 2,834 - -51.6°
Reaches altitude 10° 02:54:37 10° 302° (WNW) 1,927 - -52.0°
Maximum altitude 02:59:02 76° 27° (NNE) 614 - -52.8°
Drops below altitude 10° 03:03:26 10° 115° (ESE) 1,919 - -53.6°
Sets 03:05:43 0° 117° (ESE) 2,821 - -54.0°
